QPF
0.00 0.00 0.00 0.00 0.00 0.00 0.00 0.00 0.00 0.00 0.00 0.00 0.00 0.00 0.00 0.00 0.00 0.00 0.00 0.00 0.00 0.00 0.00 0.00 0.01 0.01 0.02 0.00 0.00 0.00 0.02 0.02 0.01 0.01 0.02 0.01 0.00 0.00 0.00 0.00 0.00 0.00 0.00 0.00
0.00 0.00 0.00 0.00 0.00 0.00 0.00 0.00 0.00 0.00 0.00 0.00 0.00 0.00 0.00 0.00 0.00 0.00 0.00 0.00 0.00 0.01 0.01 0.01 0.00 0.00 0.00 0.00 0.00 0.01 0.01 0.02 0.02 0.01 0.03 0.03 0.01 0.00 0.00 0.00 0.00 0.00 0.00 0.00
0.00 0.00 0.00 0.00 0.00 0.00 0.00 0.00 0.00 0.00 0.00 0.00 0.00 0.00 0.00 0.00 0.00 0.00 0.00 0.00 0.00 0.00 0.00 0.01 0.00 0.00 0.00 0.00 0.00 0.00 0.01 0.01 0.02 0.03 0.02 0.02 0.01 0.00 0.00 0.00 0.00 0.00 0.00 0.00
0.00 0.00 0.00 0.00 0.00 0.00 0.00 0.00 0.00 0.00 0.00 0.00 0.00 0.00 0.00 0.00 0.00 0.00 0.00 0.00 0.01 0.00 0.00 0.00 0.00 0.00 0.00 0.00 0.00 0.00 0.00 0.00 0.01 0.01 0.00 0.00 0.01 0.01 0.00 0.00 0.00 0.00 0.00 0.00
0.00 0.00 0.00 0.00 0.00 0.00 0.00 0.00 0.00 0.00 0.00 0.00 0.00 0.00 0.00 0.00 0.00 0.00 0.00 0.00 0.00 0.00 0.00 0.00 0.00 0.00 0.00 0.00 0.00 0.00 0.00 0.00 0.00 0.00 0.00 0.00 0.03 0.07 0.04 0.01 0.00 0.00 0.00 0.00
0.00 0.00 0.00 0.00 0.00 0.00 0.00 0.00 0.00 0.00 0.00 0.00 0.00 0.00 0.00 0.00 0.00 0.00 0.00 0.00 0.00 0.00 0.00 0.00 0.00 0.00 0.00 0.00 0.00 0.00 0.00 0.00 0.00 0.00 0.00 0.01 0.07 0.07 0.08 0.07 0.04 0.03 0.04 0.00
0.00 0.00 0.00 0.01 0.01 0.00 0.00 0.00 0.00 0.00 0.00 0.00 0.00 0.00 0.00 0.00 0.00 0.00 0.00 0.00 0.00 0.00 0.00 0.00 0.00 0.00 0.00 0.00 0.00 0.00 0.00 0.01 0.00 0.00 0.00 0.02 0.02 0.01 0.03 0.02 0.02 0.01 0.01 0.05
0.00 0.00 0.00 0.01 0.02 0.00 0.00 0.00 0.00 0.00 0.00 0.00 0.00 0.00 0.00 0.00 0.00 0.00 0.00 0.00 0.00 0.00 0.00 0.00 0.00 0.00 0.01 0.00 0.00 0.00 0.01 0.01 0.01 0.00 0.00 0.01 0.01 0.00 0.00 0.00 0.02 0.01 0.03 0.17
0.00 0.00 0.00 0.01 0.01 0.01 0.00 0.00 0.00 0.00 0.00 0.00 0.00 0.00 0.00 0.00 0.00 0.00 0.00 0.00 0.00 0.00 0.01 0.02 0.02 0.02 0.03 0.02 0.01 0.01 0.01 0.02 0.01 0.01 0.00 0.01 0.01 0.00 0.00 0.00 0.04 0.02 0.06 0.18
0.00 0.00 0.00 0.01 0.01 0.02 0.01 0.01 0.00 0.01 0.00 0.00 0.00 0.00 0.00 0.00 0.00 0.00 0.00 0.00 0.00 0.00 0.02 0.03 0.03 0.04 0.03 0.04 0.03 0.01 0.00 0.03 0.02 0.01 0.01 0.00 0.00 0.00 0.00 0.04 0.03 0.03 0.05 0.03
0.00 0.00 0.00 0.00 0.01 0.02 0.02 0.03 0.01 0.01 0.01 0.00 0.00 0.00 0.00 0.00 0.00 0.00 0.00 0.00 0.01 0.01 0.02 0.04 0.04 0.03 0.02 0.03 0.02 0.01 0.02 0.05 0.05 0.02 0.01 0.01 0.00 0.00 0.02 0.02 0.02 0.03 0.02 0.00
0.00 0.00 0.00 0.00 0.01 0.02 0.03 0.04 0.01 0.02 0.03 0.01 0.00 0.00 0.00 0.00 0.00 0.00 0.00 0.00 0.00 0.01 0.02 0.04 0.03 0.02 0.01 0.02 0.03 0.02 0.02 0.02 0.02 0.02 0.02 0.01 0.00 0.01 0.01 0.00 0.01 0.01 0.02 0.04
0.01 0.00 0.00 0.00 0.00 0.01 0.02 0.05 0.02 0.02 0.01 0.00 0.00 0.00 0.00 0.00 0.00 0.00 0.00 0.00 0.00 0.02 0.02 0.03 0.02 0.00 0.00 0.01 0.02 0.01 0.00 0.01 0.02 0.01 0.01 0.00 0.00 0.00 0.00 0.00 0.00 0.00 0.00 0.00
0.02 0.00 0.00 0.01 0.01 0.01 0.02 0.05 0.03 0.01 0.02 0.01 0.00 0.00 0.00 0.00 0.00 0.00 0.00 0.01 0.01 0.02 0.03 0.02 0.02 0.01 0.00 0.01 0.01 0.00 0.01 0.01 0.01 0.01 0.01 0.00 0.00 0.00 0.00 0.00 0.00 0.00 0.00 0.00
0.02 0.00 0.00 0.00 0.00 0.02 0.04 0.07 0.05 0.02 0.02 0.02 0.01 0.00 0.00 0.00 0.00 0.00 0.00 0.00 0.00 0.00 0.01 0.02 0.01 0.00 0.00 0.00 0.01 0.02 0.01 0.00 0.00 0.01 0.01 0.01 0.00 0.00 0.00 0.00 0.00 0.00 0.00 0.00
0.01 0.00 0.00 0.00 0.00 0.03 0.06 0.03 0.03 0.02 0.03 0.02 0.01 0.00 0.00 0.00 0.00 0.00 0.00 0.00 0.00 0.01 0.01 0.00 0.00 0.00 0.01 0.02 0.03 0.02 0.00 0.00 0.00 0.00 0.00 0.00 0.00 0.00 0.00 0.00 0.00 0.00 0.00 0.00
0.01 0.00 0.01 0.01 0.01 0.03 0.03 0.03 0.02 0.01 0.03 0.03 0.01 0.01 0.01 0.00 0.00 0.00 0.00 0.00 0.01 0.02 0.02 0.01 0.00 0.02 0.04 0.03 0.01 0.00 0.00 0.00 0.00 0.00 0.00 0.00 0.00 0.00 0.00 0.00 0.00 0.00 0.00 0.00
0.01 0.00 0.01 0.02 0.03 0.05 0.03 0.01 0.00 0.02 0.03 0.03 0.01 0.01 0.03 0.00 0.00 0.01 0.00 0.01 0.02 0.02 0.02 0.01 0.01 0.03 0.03 0.01 0.00 0.00 0.00 0.00 0.00 0.00 0.00 0.00 0.00 0.00 0.00 0.00 0.00 0.00 0.00 0.00
0.01 0.02 0.03 0.05 0.05 0.03 0.03 0.00 0.00 0.01 0.02 0.02 0.01 0.02 0.06 0.01 0.01 0.01 0.01 0.01 0.01 0.01 0.01 0.01 0.03 0.02 0.02 0.01 0.00 0.00 0.00 0.00 0.00 0.00 0.00 0.00 0.00 0.00 0.00 0.00 0.00 0.00 0.00 0.00
0.02 0.04 0.02 0.01 0.02 0.02 0.02 0.03 0.03 0.02 0.02 0.01 0.01 0.00 0.02 0.02 0.01 0.03 0.02 0.02 0.03 0.04 0.01 0.02 0.04 0.02 0.00 0.00 0.00 0.00 0.00 0.00 0.00 0.00 0.00 0.00 0.00 0.00 0.00 0.00 0.00 0.00 0.00 0.00
0.03 0.01 0.03 0.04 0.02 0.04 0.04 0.02 0.02 0.02 0.02 0.01 0.00 0.00 0.01 0.01 0.01 0.03 0.05 0.04 0.04 0.05 0.04 0.03 0.03 0.01 0.00 0.00 0.00 0.00 0.00 0.00 0.00 0.00 0.00 0.00 0.00 0.00 0.00 0.00 0.00 0.00 0.00 0.00
0.01 0.01 0.02 0.04 0.04 0.02 0.02 0.03 0.02 0.01 0.00 0.00 0.00 0.00 0.00 0.01 0.01 0.05 0.04 0.02 0.03 0.04 0.03 0.02 0.03 0.00 0.00 0.00 0.00 0.00 0.00 0.00 0.00 0.00 0.00 0.00 0.00 0.00 0.00 0.00 0.00 0.00 0.00 0.00
0.01 0.01 0.01 0.01 0.02 0.03 0.03 0.03 0.01 0.01 0.00 0.00 0.00 0.00 0.00 0.01 0.02 0.03 0.02 0.02 0.05 0.04 0.03 0.02 0.01 0.00 0.00 0.00 0.00 0.00 0.00 0.00 0.00 0.00 0.00 0.00 0.00 0.00 0.00 0.00 0.00 0.00 0.00 0.00
0.01 0.01 0.02 0.03 0.01 0.02 0.01 0.01 0.02 0.01 0.00 0.00 0.00 0.00 0.01 0.01 0.01 0.01 0.02 0.02 0.01 0.03 0.03 0.00 0.00 0.00 0.00 0.00 0.00 0.00 0.00 0.00 0.00 0.00 0.00 0.00 0.00 0.00 0.00 0.00 0.00 0.00 0.00 0.00
0.00 0.01 0.02 0.01 0.01 0.01 0.00 0.00 0.00 0.00 0.00 0.00 0.00 0.01 0.01 0.02 0.01 0.02 0.02 0.03 0.02 0.00 0.00 0.00 0.00 0.00 0.00 0.00 0.00 0.00 0.00 0.00 0.00 0.00 0.00 0.00 0.00 0.00 0.00 0.00 0.00 0.00 0.00 0.00
0.00 0.00 0.00 0.00 0.00 0.00 0.00 0.00 0.00 0.00 0.00 0.00 0.01 0.01 0.02 0.02 0.02 0.02 0.02 0.01 0.01 0.00 0.00 0.00 0.00 0.00 0.00 0.00 0.00 0.00 0.00 0.00 0.00 0.00 0.00 0.00 0.00 0.00 0.00 0.00 0.00 0.00 0.00 0.00
0.00 0.00 0.00 0.00 0.00 0.00 0.00 0.00 0.00 0.00 0.00 0.01 0.02 0.02 0.03 0.01 0.01 0.00 0.00 0.00 0.00 0.00 0.00 0.00 0.00 0.00 0.00 0.00 0.00 0.00 0.00 0.00 0.00 0.00 0.00 0.00 0.00 0.00 0.00 0.00 0.00 0.00 0.00 0.00
MSLP
1019.32 1019.48 1020.03 1020.46 1020.59 1020.71 1020.53 1018.70 1018.20 1019.12 1019.28 1017.53 1016.31 1015.48 1015.93 1017.00 1016.13 1016.38 1016.07 1016.01 1015.47 1014.90 1014.63 1013.89 1013.22 1012.61 1012.01 1011.74 1011.85 1011.43 1012.13 1010.76 1007.85 1004.54 1002.43 1001.51 999.37 997.73 997.16 996.61 996.35 995.59 994.32 992.45
1018.90 1019.20 1020.00 1020.28 1020.56 1020.45 1019.15 1018.10 1018.00 1019.34 1019.05 1017.37 1016.10 1016.39 1016.41 1016.44 1016.23 1015.95 1015.78 1015.54 1015.42 1015.25 1014.51 1013.85 1013.03 1012.36 1011.81 1011.67 1011.81 1011.80 1012.03 1010.53 1008.14 1003.90 1003.47 1003.35 1001.56 998.44 997.62 997.05 996.37 995.28 994.66 993.24
1018.75 1019.03 1019.80 1020.13 1020.40 1020.34 1020.27 1018.22 1017.91 1018.38 1018.65 1017.42 1016.63 1016.58 1016.33 1016.24 1016.51 1016.37 1016.18 1015.85 1015.68 1014.91 1014.35 1013.98 1012.96 1012.15 1011.30 1011.76 1011.63 1012.00 1011.89 1010.93 1010.12 1007.94 1006.09 1005.05 1003.52 1000.66 998.68 997.29 996.62 995.46 994.31 993.41
1018.52 1018.99 1019.57 1019.93 1020.17 1020.43 1020.51 1018.50 1017.40 1016.87 1017.59 1017.53 1016.64 1016.75 1016.45 1016.30 1016.24 1016.39 1016.21 1015.75 1015.23 1014.83 1014.62 1014.02 1012.93 1012.14 1011.44 1011.45 1011.21 1011.29 1011.39 1010.07 1009.10 1007.60 1005.89 1004.29 1002.34 1001.25 999.71 998.83 998.35 996.09 995.05 993.88
1018.23 1018.76 1019.22 1019.78 1020.03 1020.50 1019.79 1018.55 1017.28 1017.72 1016.70 1016.74 1016.77 1016.95 1016.29 1016.17 1015.98 1016.53 1016.04 1015.67 1015.32 1014.90 1014.94 1014.33 1013.09 1012.63 1012.36 1011.25 1010.84 1010.82 1010.76 1009.44 1008.68 1006.56 1005.03 1003.91 1002.62 1001.83 1001.00 999.61 998.73 997.26 996.32 995.45
1017.96 1018.50 1018.97 1019.33 1019.95 1020.33 1018.62 1018.28 1018.11 1017.24 1016.72 1016.81 1016.66 1016.03 1016.26 1016.32 1016.48 1016.70 1016.44 1016.08 1015.66 1015.44 1015.00 1014.58 1013.96 1013.43 1012.33 1011.55 1010.86 1010.40 1010.41 1009.38 1008.11 1006.04 1004.88 1004.21 1002.95 1001.95 1000.89 1000.29 999.78 998.60 997.95 996.79
1017.58 1018.07 1018.63 1019.17 1019.45 1019.70 1018.56 1018.09 1017.69 1017.48 1016.51 1016.32 1016.16 1016.35 1016.55 1016.59 1016.75 1016.60 1016.38 1016.30 1016.00 1015.61 1015.32 1014.78 1013.32 1011.55 1010.24 1009.34 1009.19 1009.49 1009.64 1009.31 1008.02 1006.51 1005.00 1003.92 1003.08 1002.01 1001.95 1000.86 1000.17 1000.25 1000.08 999.72
1017.27 1017.79 1018.33 1018.74 1019.17 1019.51 1019.13 1018.63 1018.19 1017.45 1016.85 1016.14 1016.14 1016.46 1016.62 1016.73 1016.77 1016.61 1016.35 1016.06 1015.86 1015.91 1015.65 1014.40 1012.39 1010.29 1008.98 1008.58 1008.50 1008.55 1008.89 1009.03 1007.86 1006.50 1005.08 1004.16 1003.76 1002.85 1002.19 1001.83 1001.47 1001.64 1000.70 1000.37
1016.84 1017.37 1017.95 1018.38 1018.93 1019.37 1019.39 1018.99 1018.81 1018.14 1017.53 1016.24 1016.11 1016.30 1016.52 1016.32 1015.79 1015.64 1015.64 1015.81 1016.05 1016.15 1015.23 1014.20 1012.84 1011.00 1010.16 1009.02 1008.56 1008.68 1008.66 1008.75 1008.41 1007.15 1005.99 1004.45 1004.46 1004.05 1003.15 1002.52 1002.82 1003.94 1003.39 1002.21
1016.31 1016.91 1017.50 1018.19 1018.62 1019.05 1019.42 1019.10 1019.22 1018.74 1018.31 1017.03 1017.14 1016.50 1016.16 1016.19 1016.13 1015.74 1015.52 1015.64 1015.85 1015.73 1015.11 1014.26 1012.91 1011.75 1011.53 1010.38 1009.81 1009.41 1009.08 1008.56 1008.03 1007.23 1006.60 1005.80 1005.81 1005.20 1003.70 1004.03 1006.18 1005.40 1005.21 1003.22
1015.77 1016.47 1017.12 1017.73 1018.24 1018.81 1019.22 1019.07 1019.13 1018.88 1018.50 1017.31 1017.49 1017.16 1017.00 1016.71 1016.66 1016.00 1015.90 1016.16 1015.82 1015.48 1015.05 1014.21 1013.27 1012.42 1011.65 1011.26 1011.13 1010.96 1010.68 1010.21 1009.09 1008.42 1007.74 1007.57 1007.97 1007.28 1008.12 1008.82 1007.46 1007.04 1006.01 1005.25
1015.29 1016.02 1016.76 1017.38 1017.98 1018.56 1019.18 1019.10 1019.12 1019.02 1019.35 1018.24 1018.05 1017.50 1017.33 1017.12 1016.79 1017.04 1016.65 1016.34 1016.51 1016.26 1015.68 1015.08 1014.34 1013.73 1012.94 1012.48 1011.80 1012.19 1011.81 1012.42 1012.07 1011.55 1010.64 1010.93 1011.37 1011.41 1010.75 1010.45 1009.68 1008.65 1006.93 1006.08
1014.81 1015.64 1016.40 1017.09 1017.77 1018.31 1018.78 1018.84 1019.04 1019.65 1019.34 1018.58 1017.60 1016.87 1016.79 1017.26 1017.41 1017.43 1017.26 1016.59 1016.67 1016.79 1017.55 1016.79 1015.72 1014.92 1013.85 1013.25 1012.84 1013.07 1013.07 1012.97 1013.09 1012.72 1011.64 1012.66 1012.85 1012.86 1012.65 1012.05 1011.34 1010.38 1008.72 1007.81
1014.43 1015.30 1016.11 1016.81 1017.46 1018.06 1018.72 1018.92 1018.89 1018.96 1018.89 1018.10 1016.15 1015.78 1016.14 1016.39 1016.63 1017.06 1017.36 1016.98 1017.15 1017.29 1017.60 1017.04 1016.16 1015.17 1014.26 1013.68 1013.51 1013.92 1014.56 1014.72 1014.53 1013.60 1013.11 1013.37 1013.60 1014.35 1013.96 1013.33 1012.82 1011.85 1011.05 1009.92
1014.36 1015.07 1015.83 1016.64 1017.22 1017.92 1018.51 1018.66 1018.64 1018.35 1018.32 1017.60 1016.43 1015.97 1015.57 1015.75 1016.18 1016.50 1016.91 1017.21 1017.37 1017.55 1017.65 1017.18 1016.26 1014.95 1014.27 1013.70 1013.81 1014.28 1015.27 1015.94 1016.04 1015.58 1015.91 1015.81 1015.43 1015.68 1015.22 1014.58 1014.19 1013.59 1012.86 1012.04
1014.18 1014.94 1015.69 1016.43 1017.02 1017.91 1018.71 1018.81 1018.77 1018.47 1018.43 1018.30 1016.84 1015.56 1015.10 1015.29 1015.47 1016.17 1016.46 1016.83 1017.38 1017.95 1017.64 1017.27 1016.53 1015.20 1014.89 1014.27 1013.85 1015.01 1015.73 1016.32 1016.85 1016.96 1016.79 1016.49 1016.48 1016.08 1016.12 1015.65 1015.24 1014.86 1014.48 1013.98
1014.08 1014.94 1015.77 1016.46 1017.01 1017.60 1018.04 1018.15 1017.71 1017.72 1018.58 1018.60 1017.28 1015.39 1014.97 1015.15 1015.55 1016.14 1016.74 1017.26 1017.73 1017.84 1017.49 1016.61 1015.62 1014.60 1014.79 1014.25 1013.76 1014.78 1015.89 1016.47 1016.83 1016.98 1016.74 1016.56 1016.80 1016.78 1016.76 1016.24 1015.64 1015.33 1015.14 1014.82
1014.04 1014.93 1015.84 1016.68 1017.39 1017.87 1018.22 1018.23 1018.22 1018.22 1018.67 1018.22 1017.22 1015.34 1014.96 1015.53 1015.86 1016.68 1017.28 1017.38 1017.66 1017.46 1016.40 1015.35 1014.80 1014.01 1013.99 1013.62 1013.98 1015.06 1016.01 1016.61 1016.86 1016.75 1016.74 1017.13 1016.88 1016.66 1016.74 1016.53 1016.15 1015.71 1015.55 1015.58
1014.18 1015.23 1016.29 1017.37 1017.90 1017.72 1017.27 1018.64 1019.08 1019.44 1019.53 1017.97 1016.86 1015.10 1014.29 1015.19 1015.52 1016.23 1016.91 1017.06 1016.62 1015.70 1015.27 1014.37 1014.18 1013.70 1013.76 1014.54 1015.21 1015.90 1016.72 1017.04 1017.38 1017.14 1017.14 1017.27 1017.13 1017.05 1016.96 1016.95 1017.07 1016.88 1016.69 1016.57
1014.64 1015.78 1016.49 1016.75 1016.81 1017.22 1018.03 1018.94 1018.80 1019.03 1018.63 1017.76 1016.13 1014.49 1013.95 1014.33 1014.87 1015.38 1015.89 1015.89 1015.11 1014.11 1013.47 1012.95 1013.51 1013.60 1015.13 1016.09 1016.70 1017.15 1017.48 1017.67 1017.92 1017.66 1017.73 1018.30 1018.32 1018.34 1018.06 1017.97 1018.16 1018.24 1018.14 1017.77
1014.65 1015.33 1015.36 1015.61 1016.64 1017.06 1017.25 1017.69 1017.79 1017.46 1016.85 1015.90 1014.75 1014.15 1013.36 1013.43 1013.90 1014.43 1014.67 1014.27 1013.86 1012.85 1012.04 1012.57 1012.79 1013.77 1016.09 1016.91 1017.50 1018.03 1018.25 1018.50 1018.82 1018.98 1019.31 1019.70 1019.95 1019.76 1019.44 1019.31 1019.40 1019.45 1019.43 1019.50
1013.60 1014.16 1015.38 1016.29 1016.32 1016.79 1016.63 1016.06 1015.64 1015.09 1013.71 1013.20 1013.55 1013.61 1013.39 1013.19 1013.39 1013.77 1013.89 1013.64 1013.29 1012.00 1011.91 1012.80 1013.17 1016.09 1017.16 1017.85 1018.53 1018.91 1019.29 1019.53 1019.72 1020.13 1020.31 1020.62 1020.93 1021.17 1020.86 1020.99 1021.15 1021.12 1020.85 1020.36
1013.77 1014.03 1015.29 1015.51 1015.74 1015.43 1014.59 1013.52 1013.31 1012.69 1012.27 1012.50 1013.03 1013.68 1013.50 1013.64 1013.59 1013.76 1013.87 1013.56 1012.50 1012.01 1012.54 1013.23 1015.45 1017.20 1018.26 1018.88 1019.36 1019.95 1020.41 1020.82 1021.10 1021.31 1021.61 1021.80 1021.96 1022.20 1022.26 1022.14 1022.01 1021.73 1021.43 1021.47
1013.16 1014.01 1014.31 1013.84 1013.65 1013.20 1012.12 1011.71 1011.70 1012.13 1012.04 1012.36 1013.13 1013.37 1013.23 1013.27 1013.61 1013.40 1013.07 1012.93 1012.86 1012.52 1012.92 1014.67 1016.68 1018.22 1019.20 1019.86 1020.41 1020.94 1021.68 1022.24 1022.44 1022.84 1023.00 1023.19 1023.18 1023.22 1023.26 1023.22 1022.88 1022.61 1022.38 1022.32
1013.53 1013.84 1012.93 1012.99 1012.86 1012.88 1012.93 1012.90 1012.94 1013.23 1012.90 1012.79 1012.90 1012.81 1013.22 1013.13 1013.25 1013.12 1012.85 1012.82 1012.93 1013.84 1015.01 1016.82 1018.23 1019.32 1020.05 1020.74 1021.27 1021.82 1022.44 1022.93 1023.08 1023.40 1023.71 1023.97 1024.07 1023.94 1024.02 1024.05 1023.82 1023.56 1023.40 1023.16
1014.48 1014.27 1013.65 1013.40 1013.30 1013.68 1013.76 1013.83 1014.05 1013.97 1013.65 1013.15 1012.87 1012.81 1012.96 1012.75 1012.58 1012.74 1013.02 1013.38 1013.96 1015.69 1017.03 1018.30 1019.37 1020.30 1021.00 1021.56 1022.10 1022.62 1023.01 1023.21 1023.52 1023.76 1023.89 1024.21 1024.47 1024.44 1024.39 1024.45 1024.31 1024.24 1024.07 1023.87
1014.68 1014.62 1014.92 1014.53 1014.28 1014.36 1014.81 1014.92 1015.15 1015.12 1014.42 1013.40 1013.11 1013.00 1012.66 1012.84 1012.90 1013.65 1014.40 1015.23 1016.42 1017.67 1018.77 1019.71 1020.54 1021.24 1021.96 1022.32 1022.66 1023.07 1023.32 1023.61 1023.85 1024.17 1024.34 1024.35 1024.47 1024.39 1024.14 1024.03 1024.29 1024.24 1024.30 1024.23
Thickness
5406 5409 5406 5405 5408 5412 5415 5439 5444 5435 5434 5460 5469 5477 5468 5442 5463 5457 5456 5452 5452 5450 5445 5447 5447 5443 5447 5451 5448 5445 5425 5426 5455 5485 5506 5515 5534 5551 5561 5554 5557 5577 5589 5607
5398 5401 5396 5397 5398 5403 5421 5436 5440 5424 5428 5442 5462 5456 5453 5452 5453 5455 5452 5449 5446 5443 5442 5439 5445 5447 5451 5449 5444 5439 5433 5441 5446 5503 5497 5490 5504 5549 5559 5566 5576 5574 5573 5592
5389 5392 5387 5389 5390 5395 5400 5423 5421 5426 5421 5438 5443 5439 5444 5445 5442 5439 5440 5438 5436 5440 5438 5437 5439 5443 5451 5443 5444 5435 5437 5436 5431 5441 5459 5472 5466 5509 5543 5558 5555 5573 5586 5604
5380 5382 5381 5383 5384 5385 5390 5410 5421 5432 5413 5418 5436 5434 5437 5434 5432 5433 5433 5431 5434 5432 5422 5427 5435 5441 5444 5443 5443 5444 5442 5438 5454 5467 5483 5492 5503 5507 5525 5532 5536 5560 5584 5602
5374 5374 5375 5375 5377 5377 5388 5392 5415 5412 5429 5429 5425 5414 5430 5429 5433 5421 5422 5424 5427 5428 5414 5419 5428 5432 5429 5436 5447 5444 5446 5447 5458 5475 5491 5499 5505 5506 5511 5528 5539 5556 5569 5573
5369 5369 5370 5372 5369 5370 5390 5394 5398 5412 5417 5416 5419 5428 5422 5421 5419 5413 5414 5414 5415 5407 5411 5415 5417 5419 5426 5433 5438 5440 5439 5450 5462 5475 5491 5488 5499 5506 5518 5521 5527 5544 5548 5572
5364 5365 5366 5364 5367 5368 5380 5388 5396 5398 5410 5418 5418 5413 5411 5410 5406 5404 5408 5405 5400 5404 5405 5407 5420 5437 5447 5455 5456 5455 5446 5445 5464 5469 5488 5485 5493 5514 5510 5521 5531 5532 5532 5539
5358 5358 5359 5362 5362 5363 5368 5376 5384 5392 5396 5413 5411 5405 5403 5402 5401 5398 5397 5399 5400 5396 5394 5403 5423 5446 5457 5459 5461 5462 5460 5452 5460 5471 5484 5495 5494 5503 5510 5514 5523 5525 5536 5541
5354 5354 5354 5357 5356 5357 5360 5366 5370 5379 5384 5403 5406 5401 5398 5400 5406 5405 5401 5396 5391 5387 5394 5402 5407 5427 5437 5450 5456 5460 5461 5459 5459 5474 5474 5479 5487 5494 5508 5518 5513 5502 5508 5525
5347 5348 5349 5349 5350 5352 5353 5358 5360 5367 5367 5387 5384 5391 5397 5397 5394 5395 5396 5391 5385 5387 5390 5395 5413 5422 5424 5428 5434 5441 5449 5459 5465 5478 5479 5489 5483 5489 5507 5501 5478 5487 5474 5512
5343 5343 5344 5345 5346 5346 5347 5351 5353 5358 5362 5379 5377 5380 5379 5382 5380 5384 5387 5381 5381 5386 5387 5400 5409 5415 5426 5426 5427 5424 5428 5433 5448 5468 5476 5474 5465 5474 5456 5453 5470 5466 5474 5488
5337 5338 5339 5340 5341 5340 5340 5344 5346 5350 5349 5364 5364 5369 5370 5371 5373 5368 5371 5374 5366 5373 5381 5388 5396 5394 5408 5412 5415 5415 5417 5407 5414 5424 5439 5430 5424 5422 5437 5440 5446 5452 5476 5488
5330 5331 5332 5333 5334 5335 5336 5338 5341 5339 5342 5351 5361 5366 5367 5362 5360 5359 5358 5366 5365 5362 5354 5360 5373 5371 5398 5394 5404 5399 5409 5412 5408 5417 5432 5410 5406 5406 5413 5421 5428 5435 5456 5471
5321 5323 5324 5326 5328 5329 5329 5331 5335 5338 5339 5343 5366 5369 5365 5362 5360 5356 5353 5356 5353 5352 5347 5352 5363 5371 5393 5393 5401 5397 5390 5389 5392 5410 5415 5409 5408 5393 5399 5407 5412 5422 5428 5452
5311 5315 5318 5319 5322 5321 5321 5324 5329 5334 5338 5341 5355 5361 5365 5361 5358 5355 5351 5347 5344 5341 5338 5343 5355 5379 5387 5397 5398 5391 5380 5373 5378 5381 5373 5375 5385 5380 5386 5393 5397 5402 5413 5427
5305 5308 5308 5311 5314 5313 5310 5313 5321 5325 5328 5331 5344 5361 5363 5361 5360 5353 5350 5346 5339 5332 5335 5340 5351 5371 5374 5379 5393 5373 5368 5364 5358 5357 5359 5365 5365 5375 5373 5383 5388 5393 5396 5403
5300 5302 5302 5303 5304 5305 5310 5318 5322 5324 5322 5322 5334 5355 5361 5359 5356 5349 5342 5338 5331 5332 5334 5345 5360 5375 5370 5378 5388 5381 5366 5364 5359 5358 5360 5366 5360 5362 5363 5373 5383 5388 5393 5396
5295 5295 5294 5295 5296 5298 5304 5307 5313 5316 5316 5324 5330 5352 5358 5352 5343 5336 5334 5332 5329 5331 5347 5361 5366 5380 5381 5391 5390 5377 5368 5361 5361 5365 5366 5359 5362 5367 5365 5368 5376 5384 5389 5388
5289 5288 5285 5282 5285 5294 5308 5301 5302 5303 5307 5323 5330 5350 5361 5352 5347 5340 5336 5335 5337 5354 5350 5364 5371 5380 5383 5376 5372 5366 5357 5357 5352 5359 5361 5360 5361 5363 5365 5364 5362 5367 5375 5378
5281 5280 5280 5284 5293 5296 5296 5295 5301 5303 5309 5320 5333 5359 5359 5360 5352 5351 5349 5346 5356 5362 5372 5382 5371 5383 5357 5352 5350 5350 5349 5351 5348 5350 5353 5345 5346 5347 5351 5353 5352 5353 5356 5364
5278 5281 5291 5296 5291 5296 5299 5299 5303 5313 5320 5333 5347 5357 5365 5368 5360 5355 5361 5363 5366 5375 5388 5380 5387 5383 5343 5344 5343 5341 5342 5341 5339 5338 5334 5329 5327 5330 5336 5339 5339 5340 5342 5343
5289 5293 5288 5286 5294 5291 5300 5312 5324 5331 5351 5360 5353 5354 5362 5366 5368 5363 5367 5366 5372 5381 5393 5381 5392 5339 5337 5337 5332 5332 5330 5330 5329 5326 5325 5321 5317 5315 5321 5320 5319 5321 5326 5331
5287 5292 5288 5294 5297 5303 5316 5332 5344 5353 5364 5363 5356 5347 5357 5359 5363 5359 5357 5358 5378 5390 5378 5380 5351 5333 5328 5326 5326 5321 5319 5316 5314 5313 5311 5310 5308 5305 5305 5309 5312 5316 5320 5319
5299 5295 5301 5316 5322 5332 5356 5365 5369 5361 5364 5362 5352 5350 5359 5362 5356 5363 5368 5371 5369 5384 5390 5369 5342 5325 5319 5317 5314 5310 5301 5297 5297 5293 5293 5292 5295 5295 5295 5296 5301 5304 5307 5308
5297 5302 5328 5328 5331 5333 5334 5339 5343 5340 5350 5354 5355 5363 5360 5361 5360 5363 5375 5376 5383 5368 5360 5331 5320 5314 5312 5307 5304 5299 5292 5288 5288 5286 5282 5280 5281 5284 5284 5284 5287 5290 5291 5294
5292 5299 5318 5325 5330 5326 5329 5330 5328 5334 5339 5350 5358 5359 5358 5365 5373 5375 5374 5379 5380 5349 5331 5320 5313 5305 5300 5296 5292 5287 5284 5284 5281 5279 5278 5274 5271 5272 5274 5274 5275 5276 5277 5279
5295 5303 5301 5312 5320 5325 5319 5321 5320 5321 5333 5348 5355 5356 5366 5366 5373 5367 5359 5352 5335 5319 5310 5305 5299 5293 5287 5284 5281 5277 5276 5273 5272 5268 5266 5266 5265 5266 5269 5270 5266 5267 5266 5267